Regional Weather Roundup
Issued by NWS

Home | Current Version | Previous Version | Graphics & Text | Print | Product List | Glossary On
Versions: 1 2 3 4 5 6 7 8 9 10 11 12 13 14 15 16 17 18 19 20 21 22 23 24 25 26 27 28 29 30 31 32 33 34 35 36 37 38 39 40 41 42 43 44 45 46 47 48 49 50
000
ASUS43 KDMX 281301
RWRIA

WEATHER ROUNDUP FOR IOWA
NATIONAL WEATHER SERVICE DES MOINES IA
800 AM CDT FRI JUL 28 2017

NOTE: "FAIR" INDICATES FEW OR NO CLOUDS BELOW 12,000 FEET WITH NO
SIGNIFICANT WEATHER AND/OR OBSTRUCTIONS TO VISIBILITY.

* - THESE STATIONS ARE NOT NWS STATIONS...THUS NOT UNDER NWS
QUALITY CONTROL.  THEY ALSO DO NOT REPORT WEATHER SUCH
AS PRECIPITATION OR FOG.

IAZ001>003-012>014-020>022-031>034-043>046-281400-
   NORTHWEST IOWA

CITY           SKY/WX    TMP DP  RH WIND       PRES   REMARKS
CARROLL *      SUNNY     66  66 100 N3        30.07R
CHEROKEE *     CLOUDY    64  64  97 N5        30.08S
DENISON *      MOSUNNY   66  64  94 NE5       30.09R
ORANGE CITY *  CLOUDY    68  63  83 E6        30.09R
SHELDON *      CLOUDY    66  63  88 NE3       30.08S
SIOUX CITY     MOSUNNY   70  64  81 E3        30.08R
SPENCER        SUNNY     66  62  87 CALM      30.09S
STORM LAKE *   CLOUDY    68  63  83 NE9       30.08S
$$

IAZ055>058-069>071-079>083-090>094-281400-
   SOUTHWEST IOWA

CITY           SKY/WX    TMP DP  RH WIND       PRES   REMARKS
ATLANTIC *     SUNNY     66  64  94 NE5       30.06R
AUDUBON *      SUNNY     66  64  94 CALM      30.08R
CLARINDA *     SUNNY     66  64  94 N5        30.06S
COUNCIL BLFS * MOSUNNY   66  66 100 N5        30.06R
CRESTON *      MOSUNNY   68  63  83 NE7       30.07R
HARLAN  *      MOSUNNY   66  66 100 N5        30.10R FOG
LAMONI         SUNNY     69  63  81 NE6       30.04R
RED OAK *      SUNNY     66  64  94 NE5       30.05S
SHENANDOAH *   SUNNY     66  64  94 NE3       30.05R
$$

IAZ047>049-059>061-072>074-084-281400-
   CENTRAL IOWA

CITY           SKY/WX    TMP DP  RH WIND       PRES   REMARKS
AMES           SUNNY     70  66  87 CALM      30.05R
ANKENY *       SUNNY     68  64  88 CALM      30.06R
BOONE *        SUNNY     68  64  88 NE5       30.05S
CHARITON *     SUNNY     66  63  88 NE5       30.04R
DES MOINES     MOSUNNY   73  63  70 NE7       30.04R
GRINNELL*      SUNNY     68  62  79 E6        30.06R
KNOXVILLE *    SUNNY     70  59  68 NE6       30.03R
MARSHALLTOWN   SUNNY     68  65  90 CALM      30.05R
NEWTON *       SUNNY     68  61  77 E5        30.05R
PELLA *        MOSUNNY   70  59  67 CALM      30.05R
PERRY *          N/A     66  65  98 CALM      30.06R
$$

IAZ004>006-015-016-023>025-035-036-281400-
   NORTH CENTRAL IOWA

CITY           SKY/WX    TMP DP  RH WIND       PRES   REMARKS
ALGONA *       SUNNY     64  64 100 N5        30.08S
ESTHERVILLE    MOSUNNY   63  63 100 NW3       30.09R
FORT DODGE *   SUNNY     66  61  82 CALM      30.08R
MASON CITY     SUNNY     67  62  84 CALM      30.09R
FOREST CITY *    N/A     68  63  83 CALM      30.08R
WEBSTER CITY * SUNNY     66  63  88 N5        30.05R
IOWA FALLS *     N/A     68  63  84 NE3       30.07R
$$

IAZ007>011-017>019-026>030-037>042-050>054-066-281400-
   NORTHEAST IOWA

CITY           SKY/WX    TMP DP  RH WIND       PRES   REMARKS
CEDAR RAPIDS   SUNNY     70  61  73 E8        30.03R
CHARLES CITY * SUNNY     68  66  94 E5        30.07R
DECORAH *      SUNNY     68  64  88 CALM      30.06S
DUBUQUE        MOSUNNY   63  59  87 NE10      30.05R
MONTICELLO *   SUNNY     68  59  73 NE5       30.04R
OELWEIN *      SUNNY     68  63  83 E5        30.06S
WATERLOO       SUNNY     69  64  84 CALM      30.05R
$$

IAZ064-065-067-068-078-281400-
   EAST CENTRAL IOWA

CITY           SKY/WX    TMP DP  RH WIND       PRES   REMARKS
DAVENPORT      SUNNY     66  58  75 NE9       30.03R
IOWA CITY      SUNNY     71  59  65 NE6       30.04R
MUSCATINE *    SUNNY     68  59  73 N6        30.02R
QUAD CITIES    SUNNY     71  58  63 NE5       30.00R
$$

IAZ062-063-075>077-085>089-095>099-281400-
   SOUTHEAST IOWA

CITY           SKY/WX    TMP DP  RH WIND       PRES   REMARKS
BURLINGTON     SUNNY     69  60  73 NE10      30.00R
FAIRFIELD *    SUNNY     68  59  73 NE12      30.02R
FORT MADISON * SUNNY     66  63  88 NE6       30.01R
KEOKUK *       SUNNY     70  61  73 NE8G14    29.99R
OSKALOOSA *      N/A     67  60  77 E3        30.04R
OTTUMWA        MOSUNNY   70  60  70 NE7       30.03R
$$

ABBREVIATIONS USED IN REMARKS
   TC - TEMPERATURES IN CELSIUS
  WCI - WIND CHILL INDEX
   HX - HEAT INDEX
  VSB - VISIBILITY
$$





USA.gov is the U.S. government's official web portal to all federal, state and local government web resources and services.